User: anonymous   Login
Location: Hamburg
(53.5500°N, 10.0000°E)
Time: 16:44:34
(UTC+02:00)
Language:

Courier 1B - Orbit

View from above orbital plane
View from above orbital plane
View from above satellite
View from above satellite

Ground track
Ground track

The orbit data is extracted from the following two-line orbital elements,

1 00058U 60013A   17268.96103154  .00000094  00000-0  15064-4 0  9999
2 00058  28.3266 104.9758 0164922 107.5659 254.2975 13.46309971804899
Epoch (UTC): 25 September 2017 23:03:53
Eccentricity: 0.0164922
inclination: 28.3266°
perigee height: 963 km
apogee height: 1209 km
right ascension of ascending node: 104.9758°
argument of perigee: 107.5659°
revolutions per day: 13.46309971
mean anomaly at epoch: 254.2975°
orbit number at epoch: 80489

The dashed part of the orbit path shows where the satellite is in the earth's shadow,  

DLR